| time (UTC) | temp C | wind direction | speed KPH | gust KPH | rain 1hr cm | rain 24hr cm | rain mn cm | humidity % | barometer mb |
| 20260507221539 | 27 | 126 | 12.9 | 19.3 | 0.00 | 0.00 | 0.00 | 83 | 1015.3 |
| 20260507221501 | 27 | 142 | 12.9 | 19.3 | 0.00 | 0.00 | 0.00 | 83 | 1016.4 |
| 20260507220100 | 27 | 121 | 8.0 | 17.7 | 0.00 | 0.00 | 0.00 | 83 | 1016.3 |
| 20260507220038 | 27 | 148 | 8.0 | 19.3 | 0.00 | 0.00 | 0.00 | 82 | 1015.2 |
| 20260507214601 | 27 | 136 | 12.9 | 24.1 | 0.00 | 0.00 | 0.00 | 82 | 1016.2 |
| 20260507214539 | 27 | 99 | 11.3 | 24.1 | 0.00 | 0.00 | 0.00 | 82 | 1015.2 |
| 20260507213103 | 27 | 106 | 11.3 | 19.3 | 0.00 | 0.00 | 0.00 | 82 | 1016.1 |
| 20260507213047 | 27 | 117 | 12.9 | 27.4 | 0.00 | 0.00 | 0.00 | 82 | 1015.0 |
| 20260507211558 | 27 | 123 | 14.5 | 25.7 | 0.00 | 0.00 | 0.00 | 82 | 1016.0 |
| 20260507211537 | 27 | 121 | 12.9 | 24.1 | 0.00 | 0.00 | 0.00 | 82 | 1014.9 |
| 20260507210105 | 27 | 66 | 14.5 | 27.4 | 0.00 | 0.00 | 0.00 | 82 | 1015.1 |
| 20260507210057 | 27 | 123 | 11.3 | 25.7 | 0.00 | 0.00 | 0.00 | 83 | 1016.1 |
| 20260507204559 | 27 | 105 | 12.9 | 27.4 | 0.00 | 0.00 | 0.00 | 83 | 1016.0 |
| 20260507204534 | 27 | 145 | 12.9 | 29.0 | 0.00 | 0.00 | 0.00 | 82 | 1014.9 |
| 20260507203103 | 28 | 84 | 12.9 | 25.7 | 0.00 | 0.00 | 0.00 | 83 | 1016.0 |
| 20260507203035 | 28 | 144 | 12.9 | 27.4 | 0.00 | 0.00 | 0.00 | 82 | 1015.0 |
| 20260507201553 | 28 | 120 | 14.5 | 27.4 | 0.00 | 0.00 | 0.00 | 82 | 1016.0 |
| 20260507201538 | 28 | 138 | 12.9 | 32.2 | 0.00 | 0.00 | 0.00 | 82 | 1014.9 |
| 20260507200053 | 28 | 170 | 11.3 | 25.7 | 0.00 | 0.00 | 0.00 | 82 | 1015.9 |
| 20260507200051 | 28 | 116 | 14.5 | 25.7 | 0.00 | 0.00 | 0.00 | 81 | 1015.0 |
| 20260507194548 | 28 | 175 | 14.5 | 27.4 | 0.00 | 0.00 | 0.00 | 81 | 1016.2 |
| 20260507194536 | 28 | 177 | 17.7 | 25.7 | 0.00 | 0.00 | 0.00 | 80 | 1015.1 |
| 20260507193101 | 29 | 85 | 16.1 | 32.2 | 0.00 | 0.00 | 0.00 | 79 | 1015.3 |
| 20260507193052 | 28 | 103 | 16.1 | 32.2 | 0.00 | 0.00 | 0.00 | 80 | 1016.2 |
| 20260507191544 | 29 | 142 | 16.1 | 29.0 | 0.00 | 0.00 | 0.00 | 80 | 1016.4 |
| 20260507191536 | 29 | 132 | 16.1 | 29.0 | 0.00 | 0.00 | 0.00 | 79 | 1015.5 |
| 20260507190141 | 28 | 158 | 17.7 | 29.0 | 0.00 | 0.00 | 0.00 | 80 | 1016.5 |
| 20260507190040 | 28 | 110 | 17.7 | 29.0 | 0.00 | 0.00 | 0.00 | 79 | 1015.5 |
| 20260507184540 | 29 | 149 | 9.7 | 27.4 | 0.00 | 0.00 | 0.00 | 79 | 1016.6 |
| 20260507184536 | 29 | 145 | 12.9 | 27.4 | 0.00 | 0.00 | 0.00 | 79 | 1015.5 |
| 20260507183043 | 29 | 130 | 9.7 | 27.4 | 0.00 | 0.00 | 0.00 | 80 | 1016.6 |
| 20260507183039 | 29 | 153 | 12.9 | 27.4 | 0.00 | 0.00 | 0.00 | 79 | 1015.5 |
| 20260507181538 | 29 | 140 | 16.1 | 25.7 | 0.00 | 0.00 | 0.00 | 78 | 1016.7 |
| 20260507181535 | 29 | 130 | 16.1 | 30.6 | 0.00 | 0.00 | 0.00 | 78 | 1015.7 |
| 20260507180041 | 29 | 134 | 14.5 | 29.0 | 0.00 | 0.00 | 0.00 | 79 | 1016.8 |
| 20260507174538 | 29 | 128 | 17.7 | 29.0 | 0.00 | 0.00 | 0.00 | 78 | 1016.1 |
| 20260507174535 | 29 | 140 | 17.7 | 29.0 | 0.00 | 0.00 | 0.00 | 79 | 1017.0 |
| 20260507173036 | 29 | 128 | 14.5 | 27.4 | 0.00 | 0.00 | 0.00 | 78 | 1016.3 |
| 20260507173034 | 29 | 126 | 14.5 | 25.7 | 0.00 | 0.00 | 0.00 | 79 | 1017.5 |
| 20260507171536 | 29 | 134 | 12.9 | 29.0 | 0.00 | 0.00 | 0.00 | 78 | 1016.5 |
| 20260507171529 | 29 | 95 | 14.5 | 25.7 | 0.00 | 0.00 | 0.00 | 79 | 1017.6 |
| 20260507170037 | 29 | 109 | 16.1 | 25.7 | 0.00 | 0.00 | 0.00 | 76 | 1016.9 |
| 20260507170027 | 29 | 82 | 17.7 | 25.7 | 0.00 | 0.00 | 0.00 | 77 | 1018.0 |
| 20260507164536 | 29 | 157 | 16.1 | 29.0 | 0.00 | 0.00 | 0.00 | 77 | 1017.0 |
| 20260507164525 | 29 | 130 | 14.5 | 25.7 | 0.00 | 0.00 | 0.00 | 77 | 1018.3 |
| 20260507163038 | 30 | 120 | 14.5 | 27.4 | 0.00 | 0.00 | 0.00 | 76 | 1017.1 |
| 20260507163024 | 30 | 138 | 16.1 | 25.7 | 0.00 | 0.00 | 0.00 | 77 | 1018.4 |
| 20260507161535 | 29 | 128 | 16.1 | 25.7 | 0.00 | 0.00 | 0.00 | 79 | 1017.3 |
| 20260507160057 | 28 | 123 | 16.1 | 27.4 | 0.00 | 0.00 | 0.00 | 79 | 1017.6 |
| 20260507160032 | 28 | 120 | 17.7 | 25.7 | 0.00 | 0.00 | 0.00 | 80 | 1018.7 |
| 20260507154537 | 28 | 148 | 12.9 | 25.7 | 0.00 | 0.00 | 0.00 | 80 | 1017.7 |
| 20260507154519 | 28 | 148 | 14.5 | 25.7 | 0.00 | 0.00 | 0.00 | 80 | 1018.8 |
| 20260507153038 | 28 | 119 | 12.9 | 24.1 | 0.00 | 0.00 | 0.00 | 80 | 1017.8 |
| 20260507153016 | 28 | 112 | 14.5 | 24.1 | 0.00 | 0.00 | 0.00 | 81 | 1018.9 |
| 20260507151537 | 28 | 94 | 12.9 | 25.7 | 0.00 | 0.00 | 0.00 | 81 | 1018.0 |
| 20260507151523 | 28 | 87 | 14.5 | 25.7 | 0.00 | 0.00 | 0.00 | 81 | 1019.0 |
| 20260507150036 | 27 | 142 | 11.3 | 20.9 | 0.00 | 0.00 | 0.00 | 84 | 1018.0 |
| 20260507150013 | 27 | 134 | 11.3 | 20.9 | 0.00 | 0.00 | 0.00 | 85 | 1019.1 |
| 20260507144545 | 26 | 92 | 4.8 | 14.5 | 0.00 | 0.00 | 0.00 | 89 | 1018.1 |
| 20260507144509 | 26 | 91 | 4.8 | 14.5 | 0.00 | 0.00 | 0.00 | 89 | 1019.0 |
| 20260507143035 | 27 | 90 | 9.7 | 24.1 | 0.00 | 0.00 | 0.00 | 87 | 1018.1 |
| 20260507143007 | 27 | 98 | 9.7 | 24.1 | 0.00 | 0.00 | 0.00 | 87 | 1019.1 |
| 20260507141540 | 28 | 123 | 16.1 | 29.0 | 0.00 | 0.00 | 0.00 | 80 | 1018.3 |
| 20260507141505 | 28 | 105 | 16.1 | 29.0 | 0.00 | 0.00 | 0.00 | 81 | 1019.2 |
| 20260507140040 | 28 | 153 | 16.1 | 25.7 | 0.00 | 0.00 | 0.00 | 80 | 1018.2 |
| 20260507140005 | 28 | 142 | 16.1 | 25.7 | 0.00 | 0.00 | 0.00 | 81 | 1019.1 |
| 20260507134536 | 28 | 158 | 14.5 | 25.7 | 0.00 | 0.00 | 0.00 | 80 | 1018.0 |
| 20260507134505 | 28 | 116 | 14.5 | 25.7 | 0.00 | 0.00 | 0.00 | 80 | 1018.9 |
| 20260507133101 | 28 | 115 | 11.3 | 20.9 | 0.00 | 0.00 | 0.00 | 83 | 1018.9 |
| 20260507133035 | 28 | 108 | 11.3 | 29.0 | 0.00 | 0.00 | 0.00 | 83 | 1018.0 |
| 20260507131617 | 28 | 136 | 12.9 | 19.3 | 0.00 | 0.00 | 0.00 | 82 | 1018.7 |
| 20260507131537 | 28 | 149 | 11.3 | 19.3 | 0.00 | 0.00 | 0.00 | 81 | 1017.9 |
| 20260507130057 | 27 | 119 | 12.9 | 20.9 | 0.00 | 0.00 | 0.00 | 82 | 1018.7 |
| 20260507130039 | 28 | 95 | 11.3 | 20.9 | 0.00 | 0.00 | 0.00 | 81 | 1017.9 |
| 20260507124554 | 27 | 144 | 9.7 | 24.1 | 0.00 | 0.00 | 0.00 | 84 | 1018.7 |
| 20260507124537 | 27 | 117 | 11.3 | 24.1 | 0.00 | 0.00 | 0.00 | 83 | 1017.7 |
| 20260507123047 | 27 | 90 | 8.0 | 19.3 | 0.00 | 0.00 | 0.00 | 86 | 1018.6 |
| 20260507123042 | 27 | 76 | 6.4 | 19.3 | 0.00 | 0.00 | 0.00 | 85 | 1017.6 |
| 20260507121544 | 27 | 161 | 9.7 | 17.7 | 0.00 | 0.00 | 0.00 | 86 | 1018.2 |
| 20260507121537 | 27 | 132 | 11.3 | 17.7 | 0.00 | 0.00 | 0.00 | 86 | 1017.3 |
| 20260507120041 | 26 | 151 | 8.0 | 17.7 | 0.00 | 0.00 | 0.00 | 88 | 1018.2 |
| 20260507120035 | 26 | 82 | 6.4 | 17.7 | 0.00 | 0.00 | 0.00 | 87 | 1017.3 |
| 20260507114538 | 26 | 96 | 11.3 | 16.1 | 0.00 | 0.00 | 0.00 | 88 | 1018.1 |
| 20260507114533 | 26 | 103 | 9.7 | 19.3 | 0.00 | 0.00 | 0.00 | 87 | 1017.2 |
| 20260507113038 | 26 | 92 | 11.3 | 17.7 | 0.00 | 0.00 | 0.00 | 89 | 1017.1 |
| 20260507113033 | 26 | 106 | 11.3 | 17.7 | 0.00 | 0.00 | 0.00 | 89 | 1017.9 |
| 20260507111543 | 25 | 126 | 8.0 | 16.1 | 0.00 | 0.00 | 0.00 | 90 | 1017.1 |
| 20260507111530 | 25 | 139 | 6.4 | 16.1 | 0.00 | 0.00 | 0.00 | 91 | 1017.8 |
| 20260507110035 | 25 | 67 | 6.4 | 16.1 | 0.00 | 0.00 | 0.00 | 91 | 1017.0 |
| 20260507110026 | 25 | 74 | 6.4 | 16.1 | 0.00 | 0.00 | 0.00 | 91 | 1017.6 |
| 20260507104535 | 25 | 74 | 6.4 | 16.1 | 0.00 | 0.00 | 0.00 | 90 | 1016.5 |
| 20260507104524 | 25 | 78 | 4.8 | 16.1 | 0.00 | 0.00 | 0.00 | 91 | 1017.3 |
| 20260507103037 | 25 | 48 | 4.8 | 12.9 | 0.00 | 0.00 | 0.00 | 90 | 1016.6 |
| 20260507103023 | 25 | 48 | 4.8 | 12.9 | 0.00 | 0.00 | 0.00 | 90 | 1017.4 |
| 20260507101538 | 25 | 107 | 1.6 | 6.4 | 0.00 | 0.00 | 0.00 | 89 | 1016.3 |
| 20260507101519 | 25 | 107 | 1.6 | 6.4 | 0.00 | 0.00 | 0.00 | 89 | 1017.2 |
| 20260507100036 | 25 | 89 | 1.6 | 9.7 | 0.00 | 0.00 | 0.00 | 88 | 1016.4 |
| 20260507100013 | 25 | 89 | 1.6 | 6.4 | 0.00 | 0.00 | 0.00 | 88 | 1017.4 |
| 20260507094540 | 25 | 55 | 4.8 | 12.9 | 0.00 | 0.00 | 0.00 | 87 | 1016.4 |
| 20260507094511 | 25 | 87 | 4.8 | 12.9 | 0.00 | 0.00 | 0.00 | 88 | 1017.1 |
| 20260507093042 | 25 | 94 | 1.6 | 9.7 | 0.00 | 0.00 | 0.00 | 87 | 1016.3 |
| 20260507093010 | 25 | 94 | 1.6 | 9.7 | 0.00 | 0.00 | 0.00 | 87 | 1017.1 |
| 20260507091539 | 25 | 75 | 4.8 | 9.7 | 0.00 | 0.00 | 0.00 | 87 | 1016.4 |
| 20260507091511 | 25 | 75 | 4.8 | 9.7 | 0.00 | 0.00 | 0.00 | 87 | 1017.1 |
| 20260507090037 | 25 | 87 | 4.8 | 11.3 | 0.00 | 0.00 | 0.00 | 86 | 1016.3 |
| 20260507090008 | 25 | 87 | 4.8 | 11.3 | 0.00 | 0.00 | 0.00 | 87 | 1017.1 |
| 20260507084539 | 25 | 81 | 3.2 | 12.9 | 0.00 | 0.00 | 0.00 | 86 | 1016.3 |
| 20260507084506 | 25 | 81 | 4.8 | 12.9 | 0.00 | 0.00 | 0.00 | 87 | 1017.1 |
| 20260507083039 | 25 | 62 | 4.8 | 12.9 | 0.00 | 0.00 | 0.00 | 87 | 1016.2 |
| 20260507083006 | 25 | 79 | 4.8 | 12.9 | 0.00 | 0.00 | 0.00 | 87 | 1017.1 |
| 20260507081538 | 25 | 71 | 6.4 | 12.9 | 0.00 | 0.00 | 0.00 | 87 | 1015.9 |
| 20260507081511 | 25 | 62 | 6.4 | 12.9 | 0.00 | 0.00 | 0.00 | 88 | 1017.0 |
| 20260507080036 | 25 | 79 | 4.8 | 14.5 | 0.00 | 0.00 | 0.00 | 87 | 1015.9 |
| 20260507080005 | 25 | 78 | 4.8 | 14.5 | 0.00 | 0.00 | 0.00 | 88 | 1016.9 |
| 20260507074536 | 25 | 81 | 6.4 | 16.1 | 0.00 | 0.00 | 0.00 | 87 | 1016.1 |
| 20260507074507 | 25 | 89 | 6.4 | 16.1 | 0.00 | 0.00 | 0.00 | 88 | 1017.0 |
| 20260507073036 | 26 | 71 | 8.0 | 14.5 | 0.00 | 0.00 | 0.00 | 87 | 1016.2 |
| 20260507073001 | 26 | 73 | 8.0 | 14.5 | 0.00 | 0.00 | 0.00 | 88 | 1017.2 |
| 20260507071602 | 26 | 90 | 4.8 | 12.9 | 0.00 | 0.00 | 0.00 | 87 | 1017.1 |
| 20260507071536 | 26 | 71 | 4.8 | 12.9 | 0.00 | 0.00 | 0.00 | 87 | 1016.3 |
| 20260507070107 | 26 | 73 | 4.8 | 12.9 | 0.00 | 0.00 | 0.00 | 87 | 1017.3 |
| 20260507070035 | 26 | 71 | 4.8 | 12.9 | 0.00 | 0.00 | 0.00 | 86 | 1016.4 |
| 20260507064558 | 26 | 73 | 6.4 | 14.5 | 0.00 | 0.00 | 0.00 | 87 | 1017.5 |
| 20260507064535 | 26 | 70 | 4.8 | 12.9 | 0.00 | 0.00 | 0.00 | 86 | 1016.5 |
| 20260507063057 | 26 | 70 | 4.8 | 11.3 | 0.00 | 0.00 | 0.00 | 87 | 1017.6 |
| 20260507063037 | 26 | 82 | 3.2 | 14.5 | 0.00 | 0.00 | 0.00 | 86 | 1016.7 |
| 20260507061554 | 26 | 69 | 3.2 | 9.7 | 0.00 | 0.00 | 0.00 | 86 | 1017.7 |
| 20260507061537 | 26 | 98 | 3.2 | 9.7 | 0.00 | 0.00 | 0.00 | 86 | 1016.8 |
| 20260507060037 | 26 | 95 | 6.4 | 12.9 | 0.00 | 0.00 | 0.00 | 85 | 1017.0 |
| 20260507054554 | 26 | 74 | 6.4 | 12.9 | 0.00 | 0.00 | 0.00 | 85 | 1018.1 |
| 20260507054540 | 26 | 89 | 6.4 | 12.9 | 0.00 | 0.00 | 0.00 | 84 | 1017.1 |
| 20260507053052 | 26 | 116 | 4.8 | 9.7 | 0.00 | 0.00 | 0.00 | 84 | 1018.5 |
| 20260507053036 | 26 | 86 | 4.8 | 9.7 | 0.00 | 0.00 | 0.00 | 84 | 1017.3 |
| 20260507051545 | 26 | 89 | 3.2 | 8.0 | 0.00 | 0.00 | 0.00 | 84 | 1018.7 |
| 20260507051535 | 26 | 89 | 3.2 | 14.5 | 0.00 | 0.00 | 0.00 | 84 | 1017.7 |
| 20260507050044 | 26 | 82 | 6.4 | 14.5 | 0.00 | 0.00 | 0.00 | 86 | 1019.2 |
| 20260507050042 | 26 | 86 | 8.0 | 14.5 | 0.00 | 0.00 | 0.00 | 85 | 1017.9 |
| 20260507044539 | 25 | 76 | 3.2 | 6.4 | 0.00 | 0.00 | 0.00 | 88 | 1019.3 |
| 20260507043035 | 25 | 105 | 6.4 | 11.3 | 0.00 | 0.00 | 0.00 | 88 | 1018.2 |
| 20260507041549 | 25 | 60 | 3.2 | 8.0 | 0.00 | 0.00 | 0.00 | 88 | 1018.4 |
| 20260507041533 | 25 | 60 | 3.2 | 8.0 | 0.00 | 0.00 | 0.00 | 89 | 1019.7 |
| 20260507040035 | 25 | 38 | 3.2 | 6.4 | 0.00 | 0.00 | 0.00 | 88 | 1018.5 |
| 20260507040029 | 25 | 38 | 3.2 | 6.4 | 0.00 | 0.00 | 0.00 | 88 | 1019.8 |
| 20260507034548 | 25 | 65 | 4.8 | 6.4 | 0.00 | 0.00 | 0.00 | 88 | 1019.8 |
| 20260507034539 | 25 | 65 | 3.2 | 8.0 | 0.00 | 0.00 | 0.00 | 87 | 1018.6 |
| 20260507033037 | 25 | 40 | 3.2 | 6.4 | 0.00 | 0.00 | 0.00 | 87 | 1018.6 |
| 20260507033031 | 25 | 40 | 3.2 | 6.4 | 0.00 | 0.00 | 0.00 | 88 | 1019.7 |
| 20260507031535 | 25 | 44 | 4.8 | 9.7 | 0.00 | 0.00 | 0.00 | 87 | 1018.7 |
| 20260507031527 | 25 | 54 | 4.8 | 8.0 | 0.00 | 0.00 | 0.00 | 88 | 1019.9 |
| 20260507030035 | 25 | 56 | 3.2 | 8.0 | 0.00 | 0.00 | 0.00 | 88 | 1018.7 |
| 20260507030027 | 25 | 56 | 3.2 | 8.0 | 0.00 | 0.00 | 0.00 | 88 | 1019.8 |
| 20260507024544 | 25 | 28 | 4.8 | 9.7 | 0.00 | 0.00 | 0.00 | 88 | 1019.6 |
| 20260507024534 | 25 | 24 | 4.8 | 9.7 | 0.00 | 0.00 | 0.00 | 88 | 1018.7 |
| 20260507023037 | 25 | 36 | 4.8 | 9.7 | 0.00 | 0.00 | 0.00 | 87 | 1018.6 |
| 20260507023025 | 25 | 36 | 4.8 | 9.7 | 0.00 | 0.00 | 0.00 | 87 | 1019.7 |
| 20260507021535 | 25 | 34 | 3.2 | 8.0 | 0.00 | 0.00 | 0.00 | 86 | 1018.6 |
| 20260507021525 | 25 | 34 | 3.2 | 8.0 | 0.00 | 0.00 | 0.00 | 87 | 1019.6 |
| 20260507020035 | 25 | 47 | 4.8 | 8.0 | 0.00 | 0.00 | 0.00 | 86 | 1018.6 |
| 20260507020025 | 25 | 47 | 4.8 | 8.0 | 0.00 | 0.00 | 0.00 | 86 | 1019.5 |
| 20260507014548 | 26 | 74 | 4.8 | 8.0 | 0.00 | 0.00 | 0.00 | 85 | 1018.5 |
| 20260507014533 | 26 | 74 | 3.2 | 8.0 | 0.00 | 0.00 | 0.00 | 86 | 1019.7 |
| 20260507013043 | 26 | 55 | 3.2 | 8.0 | 0.00 | 0.00 | 0.00 | 85 | 1018.4 |
| 20260507013020 | 26 | 55 | 3.2 | 6.4 | 0.00 | 0.00 | 0.00 | 86 | 1019.6 |
| 20260507011538 | 26 | 74 | 4.8 | 8.0 | 0.00 | 0.00 | 0.00 | 85 | 1018.3 |
| 20260507011534 | 26 | 74 | 4.8 | 8.0 | 0.00 | 0.00 | 0.00 | 85 | 1019.5 |
| 20260507010037 | 26 | 35 | 3.2 | 8.0 | 0.00 | 0.00 | 0.00 | 84 | 1018.2 |
| 20260507010020 | 26 | 35 | 3.2 | 8.0 | 0.00 | 0.00 | 0.00 | 85 | 1019.4 |
| 20260507004535 | 26 | 51 | 3.2 | 8.0 | 0.00 | 0.00 | 0.00 | 84 | 1018.0 |
| 20260507004520 | 26 | 47 | 3.2 | 8.0 | 0.00 | 0.00 | 0.00 | 84 | 1019.2 |
| 20260507003037 | 26 | 50 | 3.2 | 8.0 | 0.00 | 0.00 | 0.00 | 83 | 1017.9 |
| 20260507003019 | 26 | 32 | 4.8 | 6.4 | 0.00 | 0.00 | 0.00 | 84 | 1019.1 |
| 20260507001547 | 27 | 64 | 4.8 | 8.0 | 0.00 | 0.00 | 0.00 | 83 | 1017.9 |
| 20260507001517 | 27 | 64 | 4.8 | 8.0 | 0.00 | 0.00 | 0.00 | 84 | 1019.1 |
| 20260507000037 | 27 | 84 | 4.8 | 12.9 | 0.00 | 0.00 | 0.00 | 83 | 1017.7 |
| 20260507000017 | 27 | 84 | 3.2 | 12.9 | 0.00 | 0.00 | 0.00 | 84 | 1019.0 |
| 20260506234535 | 27 | 115 | 4.8 | 12.9 | 0.00 | 0.00 | 0.00 | 83 | 1017.5 |
| 20260506234515 | 27 | 115 | 6.4 | 12.9 | 0.00 | 0.00 | 0.00 | 83 | 1018.7 |
| 20260506233040 | 27 | 140 | 6.4 | 12.9 | 0.00 | 0.00 | 0.00 | 83 | 1017.5 |
| 20260506233015 | 27 | 140 | 6.4 | 12.9 | 0.00 | 0.00 | 0.00 | 83 | 1018.7 |
| 20260506231543 | 27 | 82 | 6.4 | 17.7 | 0.00 | 0.00 | 0.00 | 82 | 1017.3 |
| 20260506231515 | 27 | 78 | 6.4 | 17.7 | 0.00 | 0.00 | 0.00 | 83 | 1018.5 |
| 20260506230039 | 27 | 96 | 8.0 | 14.5 | 0.00 | 0.00 | 0.00 | 82 | 1017.1 |
| 20260506230015 | 27 | 80 | 8.0 | 14.5 | 0.00 | 0.00 | 0.00 | 82 | 1018.3 |
| 20260506224536 | 27 | 98 | 8.0 | 12.9 | 0.00 | 0.00 | 0.00 | 82 | 1017.0 |
| 20260506224514 | 27 | 96 | 8.0 | 12.9 | 0.00 | 0.00 | 0.00 | 82 | 1018.3 |
| 20260506223036 | 27 | 88 | 6.4 | 14.5 | 0.00 | 0.00 | 0.00 | 81 | 1016.8 |
| 20260506223008 | 27 | 113 | 4.8 | 12.9 | 0.00 | 0.00 | 0.00 | 82 | 1018.1 |